Flag for Romania Weather past 2 weeks in Cluj-Napoca, Romania

Now
34 °F

Snow flurries. Fog.


Feels Like: 25 °F
Forecast: 34 / 42 °F
Wind: 12 mph from West

Location: Cluj Airport-Napoca

Current Time: Apr 2, 2015 at 11:45:49 AM

Latest Report: Apr 2, 2015 at 11:00 AM


Visibility: 2 mi

Pressure: 29.89 "Hg

Humidity: 100%

Dew point: 34 °F

Location of Cluj-NapocaLocation

Historic Weather in Cluj-Napoca — Graph

°F

Cluj-Napoca temperature yesterday

Maximum temperature yesterday: 52 °F (at 12:30 PM)
Minimum temperature yesterday: 36 °F (at 9:30 PM)
Average temperature yesterday: 44 °F

Past Weeks' High & Low Weather Summary

 TemperatureHumidityPressure
High72 °F (Mar 26, 4:00 PM)100% (Mar 19, 7:30 PM)30.39 "Hg (Mar 19, 7:30 PM)
Low25 °F (Mar 22, 6:30 AM)26% (Mar 31, 1:30 PM)29.56 "Hg (Mar 30, 1:00 PM)
Average45 °F68%29.94 "Hg
* Reported Mar 18 9:00 AM — Apr 2 10:30 AM, Cluj-Napoca, Weather by CustomWeather, © 2015

Note: Actual official high and low records may vary slightly from our data, if they occured in-between our weather recording intervals... More about our weather records

Advertising

Cluj-Napoca weather history for previous 24 hours

 ConditionsComfort  
Time TempWeatherWind HumidityBarometerVisibility
10:30 AM
Thu, Apr 2
37 °FSnow flurries. Broken clouds.14 mph81%29.89 "Hg5 mi
10:00 AM39 °FScattered clouds.10 mph65%29.89 "HgN/A
9:30 AM39 °FPassing clouds.14 mph61%29.86 "HgN/A
9:00 AM39 °FPassing clouds.13 mph61%29.86 "HgN/A
8:30 AM37 °FScattered clouds.12 mph65%29.86 "HgN/A
8:00 AM37 °FPassing clouds.12 mph65%29.86 "HgN/A
7:30 AM37 °FPassing clouds.8 mph70%29.86 "HgN/A
7:00 AM37 °FPassing clouds.10 mph70%29.86 "HgN/A
6:30 AM37 °FPassing clouds.10 mph70%29.86 "HgN/A
6:00 AM37 °FPassing clouds.16 mph70%29.86 "HgN/A
5:30 AM39 °FPassing clouds.13 mph65%29.83 "HgN/A
4:00 AM37 °FPassing clouds.7 mph75%29.83 "HgN/A
3:00 AM37 °FPassing clouds.10 mph75%29.83 "HgN/A
2:00 AM39 °FPassing clouds.13 mph65%29.86 "HgN/A
1:00 AM39 °FClear.9 mph65%29.83 "Hg10 mi
12:00 AM37 °FClear.7 mph70%29.83 "Hg10 mi
11:30 PM
Wed, Apr 1
37 °FClear.7 mph75%29.83 "Hg10 mi
11:00 PM37 °FClear.9 mph75%29.80 "Hg10 mi
10:30 PM36 °FClear.3 mph93%29.80 "Hg10 mi
10:00 PM36 °FClear.6 mph93%29.80 "Hg10 mi
9:30 PM36 °FPassing clouds.6 mph93%29.80 "HgN/A
9:00 PM37 °FPassing clouds.5 mph87%29.77 "HgN/A
8:30 PM41 °FPassing clouds.14 mph70%29.80 "HgN/A
8:00 PM41 °FPassing clouds.8 mph70%29.77 "HgN/A
7:30 PM41 °FPassing clouds.10 mph70%29.74 "HgN/A
7:00 PM39 °FScattered clouds.8 mph81%29.77 "HgN/A
6:30 PM43 °FSprinkles. Scattered clouds.21 mph57%29.77 "HgN/A
5:00 PM50 °FScattered clouds.25 mph37%29.71 "HgN/A
4:00 PM48 °FScattered clouds.21 mph43%29.68 "HgN/A
3:00 PM50 °FScattered showers. Scattered clouds.28 mph40%29.68 "HgN/A
2:30 PM52 °FScattered clouds.28 mph41%29.68 "HgN/A
2:00 PM52 °FScattered clouds.29 mph38%29.68 "HgN/A
12:30 PM52 °FPassing clouds.24 mph41%29.68 "HgN/A
12:00 PM50 °FPassing clouds.29 mph40%29.68 "HgN/A
Weather by CustomWeather, © 2015

See weather overviewHow to use our weather pages